Location: North Evanston
(42.0634°N, 87.6976°W)
Time: 13:51:46
(UTC+00:00)

Vanguard 2 Rocket - Pass Details

Date: 12 May 2026
Orbit: 553 x 3286 km, 32.9° (Epoch: 6 June)

Event Time Altitude Azimuth Distance (km) Brightness Sun altitude
Rises 23:04:09 0° 280° (W) 7,144 13.1 20.0°
Reaches altitude 10° 23:09:21 10° 273° (W) 6,217 13.5 19.1°
Maximum altitude 23:26:34 39° 215° (SW) 4,016 10.6 15.9°
Drops below altitude 10° 23:40:20 10° 154° (SSE) 4,975 10.3 13.4°
Sets 23:43:59 0° 146° (SE) 5,639 10.5 12.7°
